[[{"header":{"parameterUnit":"m.s-1","parameterCategory":2,"la1":30.2991,"la2":30.254,"lo1":-89.0895,"lo2":-89.0444,"dy":0.0017,"dx":0.0017,"nx":28,"ny":28,"refTime":"2024-04-25T03:00:00:Z","depth":"0","parameterNumber":2,"parameterNumberName":"U-component_of_CURRENTS"},"data":[0,0,0,0,0,0,0,0,0,0,0,0,0,0,0,0,0,0,0,0,0,0,0,0,0,0,0,0,0,0,0,0,0,0,0,0,0,0,0,0,0,0,0,0,0,0,0,0,0,0,0,0,0,0,0,0,0,0,0.2328,0.2328,0,0.2326,0.2325,0.2325,0.2304,0.2303,0.2303,0.2303,0.2296,0.2296,0.2297,0,0,0,0,0,0,0,0,0,0,0,0,0,0.2334,0.2334,0.2328,0.2328,0.2328,0.2326,0.2325,0.2325,0.2304,0.2303,0.2303,0.2302,0.2296,0.2296,0.2297,0,0,0,0,0,0,0,0,0,0,0,0,0,0.233,0.2334,0.2328,0.2318,0.2318,0.2326,0.2325,0.2325,0.2304,0.2303,0.2303,0.2302,0.2296,0.2296,0.2297,0.2309,0,0,0.2297,0.2297,0,0,0,0,0,0,0,0,0.233,0.2329,0.232,0.2319,0.2318,0.2316,0.2325,0.232,0.2304,0.2307,0.2303,0.2302,0.2304,0.2304,0.2302,0.2309,0.2309,0.2297,0.2298,0.2298,0.2298,0,0,0,0,0,0,0,0.233,0.2329,0.2325,0.232,0.2319,0.2322,0.232,0.2324,0.2307,0.2307,0.2306,0.2309,0.2303,0.2302,0.2302,0.2309,0.2297,0.2298,0.2298,0.2298,0.2346,0.2347,0,0,0,0,0,0,0.2334,0.233,0.2325,0.2325,0.2325,0.2322,0.232,0.2316,0.2307,0.2306,0.2309,0.2308,0.2301,0.2301,0.2301,0.2332,0.2298,0.2298,0.2298,0.2345,0.2346,0.2348,0,0,0,0,0,0,0.2334,0.2333,0.2325,0.2329,0.2329,0.2322,0.2318,0.2316,0.2318,0.2309,0.2307,0.2313,0.2301,0.2301,0.2309,0.2331,0.2298,0.2298,0.2344,0.2345,0.2347,0.2383,0,0,0,0,0,0,0.2334,0.2333,0.2333,0.2329,0.2329,0.2337,0.2319,0.2316,0.2321,0.2319,0.2312,0.2311,0.2301,0.2309,0.231,0.2331,0.2298,0.2342,0.2344,0.2346,0.238,0.2386,0.239,0,0,0,0,0,0.2334,0.2337,0.2333,0.2333,0.2328,0.2338,0.2338,0.2331,0.2322,0.2328,0.2321,0.2311,0.2323,0.231,0.231,0.2332,0.2341,0.2344,0.2346,0.2378,0.2385,0.239,0,0,0,0,0,0,0.2339,0.2335,0.2331,0.2332,0.2339,0.2335,0.2339,0.2337,0.2336,0.2333,0.2321,0.232,0.2338,0.2331,0.2317,0.2354,0.2333,0.2335,0.2357,0.2363,0.2368,0.239,0.2299,0,0,0,0,0,0.2342,0.2341,0.2343,0.2345,0.2347,0.2345,0.2349,0.2346,0.2345,0.2344,0.2338,0.2338,0.235,0.2352,0.2357,0.2373,0.2403,0.239,0.2395,0.2399,0.2418,0.2486,0.25,0.2356,0.2356,0.2356,0,0,0.2344,0.2343,0.2342,0.2346,0.2347,0.2356,0.2345,0.2354,0.2365,0.2345,0.2353,0.2355,0.2359,0.2378,0.2386,0.2373,0.2454,0.2402,0.2406,0.2423,0.2491,0.2505,0.2517,0.2358,0.2357,0.2357,0,0,0.2351,0.2348,0.235,0.2359,0.2367,0.2368,0.2374,0.2375,0.2379,0.2389,0.2385,0.2403,0.2402,0.2419,0.2427,0.2465,0.248,0.2463,0.2503,0.2568,0.2581,0.2593,0.2644,0.266,0.2463,0.2463,0.2463,0,0.2356,0.2352,0.2355,0.2364,0.237,0.2376,0.2384,0.2397,0.2401,0.2415,0.2396,0.2431,0.2428,0.2476,0.2487,0.2478,0.2514,0.2476,0.2576,0.2588,0.26,0.265,0.2667,0.2465,0.2464,0.2464,0.2464,0,0.2361,0.2364,0.2368,0.2377,0.239,0.2398,0.2416,0.2432,0.2433,0.2447,0.2487,0.2491,0.2516,0.2519,0.2513,0.2593,0.2592,0.2577,0.2562,0.2617,0.2665,0.2683,0.2468,0.2467,0.2466,0.2466,0,0,0.2357,0.2366,0.2369,0.2377,0.2394,0.2408,0.2436,0.2467,0.2504,0.2511,0.2568,0.2581,0.2593,0.2605,0.2608,0.2661,0.2763,0.2656,0.2658,0.271,0.2911,0.284,0.2852,0.2769,0.2772,0.2775,0.2912,0,0.2357,0.2367,0.2375,0.2397,0.2403,0.2426,0.2459,0.2496,0.2526,0.2588,0.2618,0.2671,0.2624,0.2655,0.2698,0.2768,0.2812,0.2728,0.2849,0.2853,0.2786,0.2871,0.2715,0.2819,0.2928,0.2931,0.2933,0,0.2352,0.2363,0.2372,0.2408,0.2416,0.2439,0.25,0.2533,0.2623,0.2653,0.2707,0.2744,0.2835,0.2788,0.2913,0.2865,0.289,0.2925,0.293,0.2868,0.2815,0.2783,0.2846,0.2802,0.296,0.2958,0.2956,0,0.2336,0.2361,0.2366,0.2376,0.2421,0.2446,0.2479,0.2553,0.2599,0.2717,0.278,0.2863,0.2933,0.2992,0.3039,0.3,0.3181,0.3133,0.3084,0.3078,0.2972,0.2952,0.3009,0.3214,0.3214,0.3213,0.3213,0,0.2322,0.2334,0.2364,0.2373,0.2405,0.2449,0.2503,0.2555,0.266,0.2746,0.2819,0.2906,0.2992,0.3089,0.3109,0.3161,0.3232,0.3122,0.3122,0.2977,0.2957,0.2932,0.2874,0.3218,0.3217,0.3216,0.3215,0,0.2302,0.2311,0.2329,0.2378,0.2392,0.2422,0.2499,0.2564,0.266,0.2787,0.284,0.298,0.311,0.3175,0.3296,0.3247,0.3197,0.3291,0.3108,0.3083,0.2962,0.2909,0.2781,0.2692,0.3277,0.3276,0.3276,0,0.2287,0.2293,0.2325,0.2343,0.2365,0.2411,0.2459,0.2546,0.2631,0.2822,0.2907,0.3064,0.315,0.3291,0.3266,0.3302,0.3181,0.3156,0.3037,0.2965,0.2909,0.2725,0.2646,0.2917,0.2914,0.2911,0.2909,0,0.2284,0.2293,0.2323,0.2347,0.2387,0.2417,0.2502,0.255,0.2691,0.2794,0.2941,0.3024,0.3148,0.3116,0.3153,0.3139,0.2965,0.3095,0.308,0.2689,0.2434,0.2344,0.2818,0.2883,0.2886,0.2888,0.2889,0.289,0.2298,0.2319,0.2358,0.2379,0.241,0.2438,0.244,0.254,0.2625,0.2745,0.2877,0.2924,0.2968,0.2989,0.297,0.2837,0.2781,0.2729,0.2693,0.2533,0.2364,0.2775,0.2793,0.2795,0.2797,0.2799,0.28,0,0.233,0.2361,0.2392,0.241,0.2416,0.2429,0.2488,0.2476,0.2523,0.2622,0.269,0.2691,0.2661,0.2676,0.2586,0.2468,0.2299,0.2397,0.2133,0.2096,0.2543,0.2448,0.2319,0.2319,0.2319,0.2319,0.2319,0.2319,0.2362,0.2402,0.2415,0.2415,0.241,0.2381,0.2378,0.2354,0.2379,0.2344,0.2311,0.2335,0.2409,0.2375,0.2268,0.2206,0.2015,0.1841,0.1881,0.2246,0.2274,0.2302,0.2205,0.2026,0.2026,0.1316,0.131,0.1306]},{"header":{"parameterUnit":"m.s-1","parameterCategory":2,"la1":30.2991,"la2":30.254,"lo1":-89.0895,"lo2":-89.0444,"dy":0.0017,"dx":0.0017,"nx":28,"ny":28,"refTime":"2024-04-25T03:00:00:Z","depth":"0","parameterNumber":3,"parameterNumberName":"V-component_of_CURRENTS"},"data":[0,0,0,0,0,0,0,0,0,0,0,0,0,0,0,0,0,0,0,0,0,0,0,0,0,0,0,0,0,0,0,0,0,0,0,0,0,0,0,0,0,0,0,0,0,0,0,0,0,0,0,0,0,0,0,0,0,0,0.0191,0.0191,0,0.0165,0.0164,0.0164,0.0147,0.0147,0.0147,0.0147,0.0102,0.0101,0.0099,0,0,0,0,0,0,0,0,0,0,0,0,0,0.0204,0.0204,0.0191,0.0191,0.019,0.0165,0.0164,0.0164,0.0147,0.0147,0.0147,0.0147,0.0102,0.0101,0.0099,0,0,0,0,0,0,0,0,0,0,0,0,0,0.0191,0.0204,0.0191,0.0179,0.0177,0.0165,0.0164,0.0164,0.0147,0.0147,0.0147,0.0147,0.0102,0.0101,0.0099,0.0093,0,0,0.0094,0.0094,0,0,0,0,0,0,0,0,0.0191,0.019,0.0181,0.0179,0.0178,0.0159,0.0152,0.0139,0.0147,0.0159,0.0147,0.0146,0.0119,0.0116,0.0112,0.0091,0.0089,0.0094,0.0093,0.0093,0.0092,0,0,0,0,0,0,0,0.0192,0.0191,0.0181,0.018,0.0179,0.0166,0.0164,0.015,0.014,0.0158,0.0157,0.0153,0.0118,0.0114,0.0111,0.0089,0.0094,0.0093,0.0092,0.0091,0.0069,0.007,0,0,0,0,0,0,0.0196,0.0192,0.0182,0.018,0.0184,0.0166,0.0164,0.0165,0.0141,0.0137,0.0153,0.0152,0.0117,0.0113,0.0109,0.0117,0.0093,0.0091,0.009,0.0069,0.007,0.007,0,0,0,0,0,0,0.0197,0.0196,0.0183,0.0185,0.0182,0.0166,0.0168,0.0165,0.0163,0.0137,0.0133,0.0154,0.0116,0.0111,0.0102,0.0114,0.009,0.0089,0.0069,0.0069,0.007,0.0121,0,0,0,0,0,0,0.0197,0.0196,0.0199,0.0185,0.0182,0.0184,0.0168,0.0165,0.0161,0.0159,0.0137,0.0132,0.0116,0.0105,0.0101,0.0111,0.0088,0.0068,0.0069,0.007,0.0119,0.0123,0.0127,0,0,0,0,0,0.0198,0.0205,0.0199,0.0198,0.0186,0.0184,0.0182,0.0169,0.0161,0.0166,0.0149,0.0133,0.0106,0.0104,0.0099,0.0109,0.0068,0.0069,0.007,0.0117,0.0122,0.0127,0,0,0,0,0,0,0.021,0.0204,0.0197,0.0201,0.0195,0.0181,0.0182,0.0173,0.0164,0.0162,0.0137,0.0132,0.0127,0.0111,0.0109,0.0105,0.0085,0.0085,0.0122,0.0127,0.0131,0.0148,0.0086,0,0,0,0,0,0.0214,0.0219,0.0209,0.0212,0.021,0.0197,0.0193,0.0187,0.0176,0.0172,0.0155,0.0138,0.0127,0.0122,0.0106,0.0105,0.0094,0.0108,0.0112,0.0116,0.0126,0.012,0.0125,0.0073,0.0073,0.0073,0,0,0.0218,0.0216,0.0218,0.0215,0.0208,0.0215,0.0195,0.0195,0.0205,0.0168,0.0173,0.015,0.0128,0.0127,0.0124,0.0116,0.0125,0.0117,0.0121,0.0128,0.0122,0.0127,0.0132,0.0073,0.0073,0.0073,0,0,0.0233,0.0229,0.0238,0.0238,0.0234,0.0229,0.0232,0.0221,0.0222,0.0222,0.0198,0.0184,0.0166,0.0155,0.0147,0.0164,0.0144,0.0158,0.0196,0.0191,0.0195,0.0199,0.0192,0.0194,0.0163,0.0163,0.0164,0,0.0239,0.0251,0.0241,0.0251,0.0257,0.0239,0.0256,0.0254,0.0243,0.0252,0.0231,0.0211,0.0182,0.0191,0.0191,0.0175,0.0168,0.018,0.0197,0.0201,0.0204,0.0195,0.0198,0.0166,0.0166,0.0165,0.0165,0,0.0261,0.0271,0.0278,0.0288,0.0294,0.0305,0.0304,0.0311,0.0305,0.0304,0.0308,0.027,0.0261,0.0246,0.0221,0.0232,0.0219,0.0201,0.0188,0.0212,0.0201,0.0203,0.017,0.0169,0.0168,0.0167,0,0,0.0278,0.0292,0.0296,0.0315,0.0318,0.0333,0.0351,0.0372,0.0402,0.0376,0.0415,0.0367,0.0345,0.0334,0.03,0.029,0.0291,0.0257,0.0255,0.0255,0.0283,0.0269,0.0268,0.0279,0.0279,0.028,0.0267,0,0.0302,0.0334,0.0335,0.0376,0.0395,0.0396,0.0423,0.044,0.0448,0.048,0.0447,0.0464,0.0381,0.0388,0.0356,0.0323,0.0298,0.0297,0.0254,0.0253,0.0242,0.0271,0.031,0.0302,0.0268,0.0269,0.0269,0,0.0327,0.035,0.0391,0.0438,0.0448,0.0474,0.053,0.0553,0.0584,0.0593,0.0589,0.0571,0.0555,0.0485,0.0417,0.0422,0.0349,0.0309,0.0307,0.0279,0.0242,0.0271,0.0306,0.0239,0.0271,0.0271,0.0271,0,0.0357,0.0395,0.0435,0.0448,0.0491,0.0524,0.0555,0.0591,0.0645,0.068,0.0734,0.0682,0.0694,0.0599,0.0491,0.0463,0.0425,0.0376,0.0288,0.0286,0.0304,0.0303,0.0276,0.0316,0.0316,0.0316,0.0316,0,0.0386,0.0422,0.0458,0.0484,0.0556,0.0572,0.0656,0.0681,0.0751,0.0852,0.08,0.087,0.0725,0.0685,0.055,0.0437,0.0463,0.0306,0.0287,0.0322,0.0322,0.0251,0.0202,0.0316,0.0316,0.0316,0.0316,0,0.0415,0.0429,0.0489,0.0547,0.0572,0.063,0.0733,0.081,0.086,0.0997,0.1028,0.1027,0.0973,0.0819,0.0682,0.0538,0.0373,0.0363,0.0411,0.0397,0.0237,0.019,0.0129,0.0046,0.027,0.027,0.027,0,0.0433,0.0464,0.054,0.0593,0.0626,0.0711,0.0788,0.0856,0.0962,0.111,0.1205,0.119,0.122,0.1005,0.0733,0.0504,0.0383,0.038,0.0316,0.0248,0.0182,0.0138,0.0068,0.036,0.036,0.0361,0.0361,0,0.0483,0.0509,0.0568,0.0668,0.0756,0.0859,0.0984,0.1083,0.1209,0.1332,0.1496,0.1538,0.1335,0.113,0.0792,0.0617,0.0338,0.0379,0.0306,0.0252,0.0207,0.0114,0.0343,0.0364,0.0364,0.0364,0.0364,0.0363,0.0536,0.0592,0.0673,0.0776,0.0876,0.1027,0.1125,0.1288,0.147,0.1681,0.1703,0.1773,0.1488,0.1032,0.0785,0.0383,0.0332,0.0273,0.0223,0.0186,0.0105,0.0336,0.0333,0.0333,0.0332,0.0332,0.0331,0,0.0609,0.0681,0.0781,0.0919,0.1041,0.1077,0.1276,0.1392,0.162,0.1789,0.192,0.1825,0.1504,0.1104,0.0591,0.0313,0.0158,0.0164,0.0125,0.0054,0.0277,0.028,0.0269,0.0269,0.0269,0.0269,0.027,0.027,0.066,0.0771,0.083,0.1043,0.114,0.1299,0.141,0.1587,0.1719,0.1908,0.1947,0.1957,0.1781,0.0964,0.0427,0.0252,0.0032,-0.001,-0.0154,0.0033,0.004,0.0046,0.0039,-0.0022,-0.0023,-0.0349,-0.0352,-0.0354]}],[{"header":{"parameterUnit":"m.s-1","parameterCategory":2,"la1":30.2991,"la2":30.254,"lo1":-89.0895,"lo2":-89.0444,"dy":0.0017,"dx":0.0017,"nx":28,"ny":28,"refTime":"2024-04-25T03:00:00:Z","depth":"2","parameterNumber":2,"parameterNumberName":"U-component_of_CURRENTS"},"data":[0,0,0,0,0,0,0,0,0,0,0,0,0,0,0,0,0,0,0,0,0,0,0,0,0,0,0,0,0,0,0,0,0,0,0,0,0,0,0,0,0,0,0,0,0,0,0,0,0,0,0,0,0,0,0,0,0,0,0.2335,0.2335,0,0.2334,0.2334,0.2334,0.2315,0.2315,0.2314,0.2314,0.2311,0.2311,0.2312,0,0,0,0,0,0,0,0,0,0,0,0,0,0.2339,0.2339,0.2335,0.2335,0.2335,0.2334,0.2334,0.2334,0.2315,0.2315,0.2314,0.2314,0.2311,0.2311,0.2312,0,0,0,0,0,0,0,0,0,0,0,0,0,0.2336,0.2339,0.2335,0.2327,0.2326,0.2335,0.2334,0.2334,0.2315,0.2315,0.2314,0.2314,0.2311,0.2311,0.2312,0.2324,0,0,0.2313,0.2313,0,0,0,0,0,0,0,0,0.2336,0.2336,0.2328,0.2327,0.2327,0.2326,0.2335,0.2331,0.2315,0.2318,0.2314,0.2314,0.2317,0.2317,0.2316,0.2324,0.2324,0.2313,0.2313,0.2313,0.2313,0,0,0,0,0,0,0,0.2336,0.2336,0.2333,0.2328,0.2327,0.233,0.2329,0.2334,0.2319,0.2317,0.2316,0.2319,0.2317,0.2315,0.2316,0.2324,0.2313,0.2313,0.2313,0.2313,0.2363,0.2364,0,0,0,0,0,0,0.2339,0.2336,0.2333,0.2333,0.2332,0.2331,0.2329,0.2325,0.2319,0.2318,0.232,0.2319,0.2315,0.2315,0.2315,0.2347,0.2313,0.2313,0.2314,0.2362,0.2363,0.2364,0,0,0,0,0,0,0.2339,0.2339,0.2333,0.2336,0.2336,0.2331,0.2327,0.2326,0.2328,0.2321,0.232,0.2325,0.2315,0.2315,0.2325,0.2346,0.2314,0.2314,0.236,0.2362,0.2364,0.2399,0,0,0,0,0,0,0.2339,0.2339,0.234,0.2336,0.2336,0.2345,0.2328,0.2326,0.2331,0.233,0.2325,0.2324,0.2314,0.2324,0.2325,0.2346,0.2314,0.2359,0.2361,0.2363,0.2396,0.2401,0.2406,0,0,0,0,0,0.2339,0.2343,0.234,0.234,0.2336,0.2346,0.2346,0.234,0.2332,0.2339,0.2333,0.2324,0.2338,0.2325,0.2326,0.2347,0.2358,0.2361,0.2363,0.2394,0.24,0.2406,0,0,0,0,0,0,0.2345,0.2341,0.2338,0.2339,0.2346,0.2344,0.2348,0.2346,0.2347,0.2344,0.2334,0.2333,0.2352,0.2346,0.2332,0.2369,0.2349,0.2351,0.2372,0.2378,0.2383,0.2403,0.2315,0,0,0,0,0,0.2348,0.2348,0.2349,0.2352,0.2355,0.2354,0.2357,0.2356,0.2356,0.2355,0.235,0.2351,0.2364,0.2366,0.2372,0.2389,0.2417,0.2406,0.241,0.2415,0.2433,0.2499,0.2512,0.2372,0.2372,0.2372,0,0,0.235,0.235,0.2349,0.2354,0.2355,0.2364,0.2354,0.2363,0.2375,0.2356,0.2365,0.2368,0.2373,0.2392,0.2401,0.2388,0.2467,0.2418,0.2421,0.2437,0.2503,0.2517,0.2529,0.2374,0.2374,0.2373,0,0,0.2357,0.2355,0.2358,0.2367,0.2375,0.2377,0.2383,0.2384,0.2388,0.24,0.2396,0.2415,0.2416,0.2433,0.244,0.2479,0.2493,0.2477,0.2515,0.2579,0.2591,0.2603,0.265,0.2666,0.2477,0.2477,0.2477,0,0.2362,0.2359,0.2363,0.2372,0.2377,0.2384,0.2392,0.2405,0.2411,0.2424,0.2407,0.2443,0.2442,0.2488,0.2499,0.2491,0.2525,0.2489,0.2587,0.2598,0.2609,0.2656,0.2672,0.2479,0.2478,0.2478,0.2478,0,0.2366,0.2371,0.2375,0.2385,0.2397,0.2405,0.2423,0.2439,0.2441,0.2456,0.2496,0.2501,0.2527,0.253,0.2525,0.2602,0.2601,0.2587,0.2573,0.2626,0.267,0.2687,0.2481,0.2481,0.248,0.248,0,0,0.2361,0.2372,0.2375,0.2383,0.2401,0.2414,0.2441,0.247,0.2508,0.2516,0.2572,0.2586,0.26,0.2612,0.2616,0.2668,0.2766,0.2663,0.2666,0.2713,0.2908,0.2804,0.2811,0.2774,0.2777,0.2779,0.2906,0,0.236,0.237,0.2378,0.24,0.2406,0.2428,0.246,0.2497,0.2529,0.2592,0.2621,0.2676,0.263,0.2662,0.2703,0.277,0.2813,0.2733,0.2849,0.2852,0.2755,0.2828,0.2561,0.2643,0.2922,0.2925,0.2927,0,0.2354,0.2365,0.2373,0.2409,0.2416,0.244,0.2498,0.2531,0.2622,0.2653,0.2709,0.2748,0.2834,0.2791,0.2908,0.2863,0.2888,0.2921,0.2926,0.2832,0.2779,0.2637,0.2663,0.2955,0.2953,0.2951,0.2949,0,0.2337,0.2361,0.2365,0.2375,0.2419,0.2443,0.2477,0.2552,0.2599,0.2718,0.2783,0.2862,0.2934,0.2986,0.3028,0.2993,0.3163,0.3118,0.304,0.3033,0.283,0.2798,0.3199,0.3198,0.3198,0.3198,0.3197,0,0.2321,0.2332,0.2364,0.2373,0.2403,0.2448,0.2504,0.2555,0.2663,0.2749,0.2823,0.2909,0.2991,0.3082,0.3096,0.3123,0.321,0.3072,0.3069,0.2831,0.28,0.3083,0.3068,0.3202,0.3201,0.32,0.32,0,0.2299,0.231,0.2325,0.2374,0.2392,0.2422,0.2504,0.2569,0.2668,0.2795,0.2847,0.2988,0.3095,0.3151,0.3262,0.3203,0.3248,0.3223,0.293,0.2888,0.3059,0.3044,0.3169,0.3167,0.3165,0.3163,0.3161,0,0.2284,0.2288,0.2321,0.2342,0.2366,0.2416,0.2467,0.2555,0.2639,0.2829,0.2911,0.3054,0.3105,0.3214,0.3176,0.318,0.3234,0.2915,0.2782,0.3077,0.3062,0.305,0.3039,0.2533,0.2527,0.2522,0.2518,0,0.2279,0.2287,0.2314,0.2345,0.2389,0.2417,0.2506,0.2547,0.2686,0.2771,0.29,0.2954,0.3052,0.2924,0.2925,0.2886,0.2892,0.2806,0.3229,0.2567,0.2484,0.2467,0.2475,0.247,0.2475,0.2479,0.2481,0.2483,0.2291,0.2305,0.2345,0.2353,0.2404,0.2424,0.2424,0.2515,0.2574,0.2646,0.2764,0.2729,0.2737,0.2589,0.2507,0.2447,0.2652,0.2496,0.2511,0.2531,0.242,0.2336,0.2274,0.2278,0.2281,0.2283,0.2286,0,0.2302,0.233,0.2357,0.2367,0.2379,0.2412,0.2465,0.2412,0.2421,0.2466,0.2475,0.2203,0.21,0.2125,0.196,0.1943,0.1905,0.1843,0.1769,0.1818,0.1861,0.1713,0.1382,0.1379,0.1376,0.1373,0,0,0.2325,0.2338,0.2321,0.2317,0.2337,0.2319,0.2312,0.2236,0.2216,0.2044,0.1967,0.2028,0.2083,0.1714,0.1653,0.15,0.1649,0.1428,0.2159,0.2125,0.2165,0.2249,0.2078,0,0,0,0,0]},{"header":{"parameterUnit":"m.s-1","parameterCategory":2,"la1":30.2991,"la2":30.254,"lo1":-89.0895,"lo2":-89.0444,"dy":0.0017,"dx":0.0017,"nx":28,"ny":28,"refTime":"2024-04-25T03:00:00:Z","depth":"2","parameterNumber":3,"parameterNumberName":"V-component_of_CURRENTS"},"data":[0,0,0,0,0,0,0,0,0,0,0,0,0,0,0,0,0,0,0,0,0,0,0,0,0,0,0,0,0,0,0,0,0,0,0,0,0,0,0,0,0,0,0,0,0,0,0,0,0,0,0,0,0,0,0,0,0,0,0.0146,0.0146,0,0.0121,0.012,0.012,0.0104,0.0104,0.0104,0.0104,0.006,0.0059,0.0058,0,0,0,0,0,0,0,0,0,0,0,0,0,0.0159,0.0159,0.0146,0.0146,0.0146,0.0121,0.012,0.012,0.0104,0.0104,0.0104,0.0104,0.0061,0.0059,0.0058,0,0,0,0,0,0,0,0,0,0,0,0,0,0.0146,0.0159,0.0147,0.0135,0.0133,0.0121,0.012,0.012,0.0104,0.0104,0.0104,0.0104,0.0061,0.0059,0.0058,0.0052,0,0,0.0053,0.0052,0,0,0,0,0,0,0,0,0.0146,0.0145,0.0137,0.0135,0.0134,0.0115,0.0109,0.0096,0.0104,0.0116,0.0104,0.0104,0.0077,0.0074,0.007,0.005,0.0048,0.0053,0.0052,0.0051,0.0051,0,0,0,0,0,0,0,0.0147,0.0146,0.0137,0.0136,0.0135,0.0122,0.0121,0.0106,0.0098,0.0115,0.0113,0.011,0.0076,0.0072,0.0069,0.0047,0.0053,0.0052,0.0051,0.005,0.0029,0.003,0,0,0,0,0,0,0.0151,0.0147,0.0137,0.0136,0.0139,0.0122,0.012,0.0122,0.0098,0.0094,0.011,0.0109,0.0075,0.0071,0.0068,0.0076,0.0051,0.005,0.0049,0.0029,0.0029,0.003,0,0,0,0,0,0,0.0152,0.0151,0.0138,0.014,0.0138,0.0123,0.0124,0.0121,0.012,0.0095,0.0091,0.0112,0.0074,0.007,0.0061,0.0073,0.0049,0.0048,0.0029,0.0029,0.003,0.0081,0,0,0,0,0,0,0.0152,0.0151,0.0154,0.0141,0.0138,0.0139,0.0124,0.0121,0.0118,0.0116,0.0095,0.009,0.0074,0.0064,0.006,0.0071,0.0046,0.0028,0.0029,0.003,0.0079,0.0083,0.0087,0,0,0,0,0,0.0153,0.016,0.0154,0.0153,0.0142,0.014,0.0138,0.0126,0.0118,0.0123,0.0107,0.0091,0.0065,0.0063,0.0058,0.0069,0.0028,0.0029,0.0029,0.0077,0.0082,0.0087,0,0,0,0,0,0,0.0165,0.0159,0.0152,0.0156,0.0151,0.0137,0.0138,0.013,0.0122,0.012,0.0095,0.009,0.0086,0.007,0.0068,0.0064,0.0044,0.0044,0.0082,0.0087,0.0091,0.0107,0.0045,0,0,0,0,0,0.0169,0.0174,0.0164,0.0168,0.0166,0.0153,0.015,0.0144,0.0134,0.013,0.0113,0.0097,0.0086,0.0081,0.0066,0.0065,0.0052,0.0068,0.0073,0.0076,0.0086,0.0079,0.0083,0.0033,0.0033,0.0033,0,0,0.0173,0.0171,0.0173,0.0171,0.0164,0.0171,0.0151,0.0152,0.0162,0.0126,0.0131,0.0109,0.0087,0.0087,0.0084,0.0076,0.0083,0.0078,0.0081,0.0088,0.008,0.0085,0.009,0.0033,0.0033,0.0033,0,0,0.0188,0.0184,0.0194,0.0194,0.019,0.0186,0.0189,0.0178,0.0179,0.0179,0.0156,0.0144,0.0126,0.0115,0.0107,0.0125,0.0102,0.0119,0.0156,0.015,0.0154,0.0158,0.0144,0.0146,0.0124,0.0124,0.0124,0,0.0194,0.0206,0.0196,0.0207,0.0213,0.0196,0.0212,0.0211,0.02,0.0209,0.0189,0.0169,0.0142,0.015,0.0152,0.0136,0.0126,0.014,0.0156,0.0159,0.0162,0.0147,0.0149,0.0127,0.0127,0.0126,0.0126,0,0.0215,0.0226,0.0233,0.0244,0.025,0.026,0.026,0.0266,0.0261,0.0259,0.0264,0.0228,0.0219,0.0205,0.0181,0.0192,0.0176,0.016,0.0146,0.0171,0.0153,0.0154,0.0131,0.013,0.0129,0.0128,0,0,0.0231,0.0246,0.025,0.0268,0.0273,0.0287,0.0305,0.0324,0.0354,0.0329,0.0366,0.0321,0.0301,0.029,0.0258,0.0247,0.0246,0.0215,0.0214,0.0207,0.023,0.019,0.0187,0.0235,0.0236,0.0236,0.0209,0,0.0254,0.0286,0.0287,0.0327,0.0347,0.0347,0.0373,0.0389,0.0398,0.0429,0.0397,0.0414,0.0336,0.0343,0.0312,0.0276,0.0251,0.0255,0.0203,0.0201,0.0167,0.0188,0.0209,0.0185,0.0209,0.0209,0.0209,0,0.0278,0.0301,0.0341,0.0386,0.0396,0.0422,0.0475,0.0498,0.0528,0.0537,0.0534,0.0517,0.0498,0.0435,0.0361,0.0369,0.0298,0.0257,0.0255,0.0202,0.0163,0.0164,0.0185,0.021,0.021,0.021,0.021,0,0.0306,0.0343,0.0383,0.0395,0.0437,0.0469,0.05,0.0536,0.0587,0.0622,0.0674,0.062,0.0633,0.0535,0.0425,0.0402,0.0352,0.031,0.0201,0.0197,0.0197,0.0193,0.025,0.025,0.0251,0.0251,0.0251,0,0.0334,0.0368,0.0405,0.0431,0.05,0.0516,0.0599,0.0623,0.0691,0.0785,0.074,0.0801,0.0661,0.0615,0.0479,0.0349,0.0385,0.0214,0.0191,0.0214,0.0211,0.0218,0.0215,0.025,0.025,0.025,0.025,0,0.036,0.0375,0.0431,0.0488,0.0516,0.0571,0.0674,0.0746,0.0798,0.0926,0.0955,0.0951,0.0882,0.0729,0.0587,0.0439,0.031,0.0248,0.0277,0.0258,0.0141,0.0141,0.0125,0.0124,0.0122,0.0121,0.012,0,0.0376,0.0404,0.0479,0.0532,0.0566,0.065,0.0726,0.0791,0.0889,0.1028,0.1112,0.1089,0.1057,0.0822,0.0593,0.0353,0.0308,0.02,0.0142,0.015,0.013,0.0132,0.0133,0.0163,0.0163,0.0162,0.0162,0,0.0419,0.0442,0.0497,0.0598,0.0685,0.0779,0.0901,0.0972,0.1088,0.1196,0.1307,0.1289,0.1098,0.0851,0.053,0.0374,0.0235,0.0181,0.0212,0.0183,0.0182,0.0163,0.0164,0.0158,0.0159,0.0159,0.0159,0.0159,0.0463,0.0508,0.0586,0.0661,0.0782,0.0898,0.0968,0.1111,0.1244,0.1374,0.1387,0.1355,0.1127,0.0688,0.0441,0.0199,0.0213,0.0088,0.0091,0.0095,0.0096,0.0091,0.0051,0.0051,0.0051,0.0051,0.005,0,0.0504,0.0556,0.0646,0.0738,0.0843,0.0913,0.1087,0.1143,0.1285,0.14,0.1446,0.1188,0.0937,0.0677,0.0322,0.0088,0.0084,-0.0004,0.0042,0.0049,0.0054,0.0053,-0.0003,-0.0005,-0.0006,-0.0007,0,0,0.0539,0.0602,0.0613,0.0746,0.0835,0.0974,0.1062,0.1184,0.1293,0.1328,0.1328,0.128,0.1001,0.0708,0.042,0.021,0.0176,0.0164,0.0237,0.0335,0.0342,0.0142,0.0153,0,0,0,0,0]}],[{"header":{"parameterUnit":"m.s-1","parameterCategory":2,"la1":30.2991,"la2":30.254,"lo1":-89.0895,"lo2":-89.0444,"dy":0.0017,"dx":0.0017,"nx":28,"ny":28,"refTime":"2024-04-25T03:00:00:Z","depth":"4","parameterNumber":2,"parameterNumberName":"U-component_of_CURRENTS"},"data":[0,0,0,0,0,0,0,0,0,0,0,0,0,0,0,0,0,0,0,0,0,0,0,0,0,0,0,0,0,0,0,0,0,0,0,0,0,0,0,0,0,0,0,0,0,0,0,0,0,0,0,0,0,0,0,0,0,0,0.1425,0.1425,0,0.1462,0.1463,0.1463,0.1503,0.1503,0.1504,0.1505,0.1563,0.1564,0.1565,0,0,0,0,0,0,0,0,0,0,0,0,0,0.1389,0.1389,0.1424,0.1425,0.1426,0.1462,0.1463,0.1463,0.1503,0.1504,0.1504,0.1505,0.1563,0.1564,0.1565,0,0,0,0,0,0,0,0,0,0,0,0,0,0.1412,0.1389,0.1424,0.1451,0.1454,0.1462,0.1463,0.1463,0.1503,0.1504,0.1505,0.1506,0.1563,0.1564,0.1565,0.1553,0,0,0.157,0.157,0,0,0,0,0,0,0,0,0.141,0.1413,0.1446,0.1449,0.1452,0.148,0.1472,0.1495,0.1502,0.1482,0.1505,0.1506,0.1538,0.1541,0.1544,0.1556,0.1558,0.157,0.1571,0.1571,0.1572,0,0,0,0,0,0,0,0.1409,0.1411,0.1438,0.1447,0.1451,0.1462,0.1466,0.1476,0.1503,0.1484,0.1488,0.1494,0.154,0.1542,0.1545,0.1559,0.157,0.1571,0.1572,0.1572,0.1668,0.167,0,0,0,0,0,0,0.1406,0.141,0.1437,0.1439,0.1435,0.1462,0.1467,0.1469,0.1503,0.1509,0.1493,0.1496,0.1539,0.1544,0.1548,0.1622,0.1571,0.1572,0.1573,0.1666,0.1669,0.167,0,0,0,0,0,0,0.1405,0.1408,0.1435,0.1427,0.1431,0.1462,0.1464,0.1469,0.1505,0.1509,0.1516,0.1527,0.154,0.1546,0.1587,0.1621,0.1573,0.1574,0.1664,0.1667,0.1669,0.1714,0,0,0,0,0,0,0.1403,0.1407,0.1424,0.1426,0.1432,0.146,0.1463,0.1469,0.1506,0.151,0.154,0.1544,0.1541,0.1585,0.1589,0.1622,0.1575,0.1662,0.1666,0.1669,0.1711,0.1718,0.1725,0,0,0,0,0,0.1402,0.1414,0.1424,0.1429,0.1449,0.1461,0.1465,0.1489,0.1507,0.1524,0.155,0.1545,0.1609,0.1587,0.1591,0.1626,0.1661,0.1665,0.1668,0.1708,0.1717,0.1724,0,0,0,0,0,0,0.1409,0.1419,0.1431,0.1447,0.1464,0.1469,0.1492,0.1507,0.1539,0.1556,0.1561,0.1567,0.1618,0.1617,0.1594,0.1665,0.1636,0.1641,0.1665,0.1674,0.168,0.1689,0.1577,0,0,0,0,0,0.1417,0.1432,0.1441,0.146,0.147,0.1488,0.1503,0.1519,0.154,0.1558,0.1577,0.1604,0.163,0.1649,0.1667,0.1701,0.1709,0.1729,0.1736,0.1742,0.1753,0.1795,0.1807,0.1683,0.1683,0.1683,0,0,0.1427,0.1436,0.1446,0.1464,0.148,0.1494,0.15,0.1532,0.1556,0.1558,0.1608,0.163,0.1646,0.1687,0.171,0.1695,0.1782,0.1747,0.1752,0.176,0.18,0.1812,0.1823,0.1686,0.1685,0.1685,0,0,0.144,0.146,0.1474,0.1488,0.1517,0.1524,0.1541,0.1564,0.1593,0.1635,0.1649,0.1693,0.1727,0.1747,0.176,0.1817,0.1817,0.183,0.1871,0.1912,0.1922,0.1932,0.1953,0.1964,0.1833,0.1833,0.1833,0,0.1456,0.1465,0.1482,0.1497,0.1513,0.1541,0.1558,0.1585,0.1624,0.1654,0.1662,0.174,0.1755,0.1807,0.1834,0.1833,0.1852,0.1834,0.1921,0.193,0.1938,0.1959,0.197,0.1836,0.1835,0.1835,0.1835,0,0.1465,0.1486,0.1496,0.152,0.1543,0.1564,0.1596,0.1636,0.1676,0.1702,0.1778,0.1804,0.1851,0.1867,0.187,0.1944,0.1936,0.1923,0.1896,0.1953,0.1971,0.1982,0.1839,0.1838,0.1838,0.1837,0,0,0.1459,0.1496,0.1502,0.152,0.1558,0.1575,0.1627,0.1674,0.1721,0.1775,0.1835,0.1894,0.1924,0.1942,0.1958,0.1998,0.2075,0.1997,0.1998,0.2012,0.2164,0.201,0.2007,0.2083,0.2085,0.2087,0.215,0,0.1462,0.149,0.151,0.1546,0.156,0.1605,0.1648,0.1704,0.1759,0.1825,0.188,0.1944,0.1947,0.1987,0.2029,0.207,0.2108,0.2059,0.2112,0.2113,0.1964,0.2016,0.2094,0.2158,0.216,0.2162,0.2163,0,0.1454,0.1475,0.151,0.156,0.1574,0.1608,0.1689,0.1732,0.1825,0.1879,0.1954,0.1995,0.2079,0.2067,0.2165,0.2139,0.2163,0.2183,0.2185,0.2034,0.1979,0.2091,0.2183,0.2181,0.218,0.2179,0.2177,0,0.1426,0.1472,0.1504,0.1519,0.1582,0.1625,0.1669,0.1756,0.1799,0.1924,0.1974,0.2068,0.2127,0.2183,0.2227,0.2215,0.2316,0.2294,0.2174,0.2163,0.2262,0.2251,0.236,0.236,0.2359,0.2359,0.2359,0,0.1399,0.1427,0.1501,0.1515,0.1567,0.1622,0.1688,0.1758,0.1845,0.1898,0.2003,0.2053,0.2165,0.2224,0.2255,0.2242,0.2339,0.219,0.2173,0.2278,0.2269,0.2269,0.2258,0.2362,0.2361,0.2361,0.236,0,0.1351,0.1402,0.1443,0.1523,0.1553,0.1596,0.168,0.1717,0.1827,0.1899,0.1944,0.2066,0.215,0.2223,0.2315,0.2255,0.2273,0.2241,0.2352,0.2338,0.2086,0.2077,0.2114,0.2109,0.2105,0.2102,0.2099,0,0.1322,0.1338,0.1435,0.1467,0.1508,0.1573,0.1607,0.1706,0.1741,0.1883,0.1906,0.2025,0.2096,0.2098,0.2192,0.2228,0.2204,0.2187,0.2135,0.2084,0.2064,0.2061,0.2057,0.2092,0.2091,0.209,0.2089,0,0.1261,0.1316,0.1353,0.1407,0.1457,0.1491,0.1552,0.1557,0.1667,0.1786,0.1826,0.1865,0.1946,0.2009,0.2046,0.207,0.2185,0.2144,0.2152,0.2103,0.2058,0.2042,0.2043,0.2075,0.2077,0.2078,0.2079,0,0.1226,0.1234,0.1289,0.1324,0.1382,0.138,0.1424,0.1454,0.1494,0.1648,0.1661,0.1796,0.1922,0.1927,0.1966,0.1972,0.1946,0.1875,0.1896,0.1913,0.1817,0.1729,0.1637,0,0,0,0,0,0.118,0.1167,0.1191,0.1213,0.1262,0.1289,0.1367,0.1412,0.1519,0.1503,0.1572,0.1642,0.1693,0.1766,0.1735,0.1882,0.1954,0.1836,0.1883,0.1996,0.2013,0.1918,0,0,0,0,0,0,0.1147,0.1171,0.1153,0.1106,0.1096,0.1122,0.1165,0.1243,0.1242,0.1375,0.1421,0.1531,0.1619,0.1696,0.17,0.1722,0.1714,0.1926,0.1921,0.1987,0.2002,0.2015,0.1924,0,0,0,0,0]},{"header":{"parameterUnit":"m.s-1","parameterCategory":2,"la1":30.2991,"la2":30.254,"lo1":-89.0895,"lo2":-89.0444,"dy":0.0017,"dx":0.0017,"nx":28,"ny":28,"refTime":"2024-04-25T03:00:00:Z","depth":"4","parameterNumber":3,"parameterNumberName":"V-component_of_CURRENTS"},"data":[0,0,0,0,0,0,0,0,0,0,0,0,0,0,0,0,0,0,0,0,0,0,0,0,0,0,0,0,0,0,0,0,0,0,0,0,0,0,0,0,0,0,0,0,0,0,0,0,0,0,0,0,0,0,0,0,0,0,0.0021,0.0021,0,0.001,0.001,0.001,-0.0002,-0.0002,-0.0002,-0.0002,-0.003,-0.0031,-0.0031,0,0,0,0,0,0,0,0,0,0,0,0,0,0.0025,0.0025,0.0021,0.0021,0.0021,0.001,0.001,0.001,-0.0002,-0.0002,-0.0002,-0.0003,-0.003,-0.0031,-0.0031,0,0,0,0,0,0,0,0,0,0,0,0,0,0.002,0.0025,0.0021,0.0013,0.0012,0.001,0.001,0.001,-0.0002,-0.0002,-0.0002,-0.0003,-0.003,-0.0031,-0.0031,-0.003,0,0,-0.0034,-0.0034,0,0,0,0,0,0,0,0,0.002,0.002,0.0014,0.0014,0.0013,0.0004,0.0001,-0.0005,-0.0002,0.0004,-0.0002,-0.0003,-0.0021,-0.0022,-0.0022,-0.0031,-0.0032,-0.0034,-0.0034,-0.0035,-0.0035,0,0,0,0,0,0,0,0.0021,0.002,0.0017,0.0014,0.0013,0.0007,0.0006,-0.0,-0.0006,0.0004,0.0003,0.0,-0.0021,-0.0021,-0.0023,-0.0033,-0.0034,-0.0035,-0.0035,-0.0035,-0.0034,-0.0034,0,0,0,0,0,0,0.0021,0.0021,0.0018,0.0017,0.0015,0.0007,0.0006,0.0008,-0.0005,-0.0008,0.0001,-0.0,-0.002,-0.0022,-0.0024,-0.0008,-0.0035,-0.0036,-0.0036,-0.0035,-0.0034,-0.0033,0,0,0,0,0,0,0.0022,0.0021,0.0018,0.0018,0.0017,0.0008,0.0009,0.0008,0.0009,-0.0008,-0.001,0.0003,-0.002,-0.0023,-0.0022,-0.001,-0.0036,-0.0037,-0.0035,-0.0034,-0.0034,0.0014,0,0,0,0,0,0,0.0022,0.0022,0.0024,0.0018,0.0017,0.0022,0.001,0.0008,0.0007,0.0006,-0.0007,-0.001,-0.0021,-0.0021,-0.0023,-0.0012,-0.0037,-0.0036,-0.0035,-0.0034,0.0012,0.0016,0.002,0,0,0,0,0,0.0022,0.0028,0.0024,0.0024,0.002,0.0023,0.0022,0.0015,0.0008,0.0013,0.0006,-0.0009,-0.0017,-0.0021,-0.0024,-0.0012,-0.0036,-0.0035,-0.0034,0.001,0.0015,0.002,0,0,0,0,0,0,0.003,0.0028,0.0023,0.0028,0.0027,0.0021,0.0023,0.0018,0.0016,0.0015,-0.0001,-0.0004,0.0,-0.0013,-0.0017,-0.0009,-0.0029,-0.0029,0.0005,0.001,0.0014,0.0024,-0.0038,0,0,0,0,0,0.0033,0.0038,0.0034,0.0038,0.0038,0.0031,0.003,0.0027,0.0024,0.0023,0.0013,0.0005,0.0003,0.0001,-0.0005,0.0,-0.0022,0.0005,0.0009,0.0013,0.002,0.0003,0.0006,-0.003,-0.003,-0.003,0,0,0.0036,0.0036,0.0038,0.004,0.0037,0.0047,0.003,0.0034,0.0047,0.002,0.0031,0.0018,0.0007,0.0015,0.0016,0.0006,0.0009,0.0015,0.0018,0.0022,0.0004,0.0008,0.0011,-0.0029,-0.0029,-0.0029,0,0,0.0048,0.0046,0.0055,0.0058,0.0059,0.0058,0.0061,0.0058,0.0062,0.007,0.0055,0.0052,0.0046,0.0044,0.0042,0.0065,0.0031,0.006,0.0091,0.0075,0.0078,0.008,0.0046,0.0045,0.0063,0.0063,0.0063,0,0.0052,0.0064,0.0058,0.0069,0.0078,0.0066,0.0083,0.0088,0.0086,0.0095,0.0079,0.0075,0.0063,0.0078,0.0086,0.0076,0.0053,0.0074,0.0081,0.0083,0.0084,0.0048,0.0047,0.0065,0.0065,0.0065,0.0065,0,0.0072,0.0083,0.0089,0.0103,0.0112,0.0124,0.013,0.0139,0.0138,0.014,0.0149,0.0131,0.0128,0.0123,0.0113,0.0122,0.0097,0.0087,0.0069,0.0091,0.0051,0.0049,0.0069,0.0068,0.0067,0.0067,0,0,0.0079,0.01,0.0103,0.012,0.0134,0.0146,0.0171,0.0192,0.0212,0.0202,0.0222,0.0215,0.0197,0.0194,0.0175,0.0162,0.0148,0.0133,0.013,0.01,0.0096,0.0082,0.0077,0.0138,0.0138,0.0138,0.006,0,0.0099,0.0131,0.0138,0.0175,0.0193,0.0201,0.0226,0.0245,0.0253,0.0267,0.0251,0.0259,0.0228,0.0226,0.0209,0.0166,0.0144,0.0168,0.0078,0.0075,0.0062,0.0075,0.0138,0.0058,0.0057,0.0057,0.0056,0,0.0118,0.0139,0.0178,0.0218,0.0228,0.0251,0.0295,0.0317,0.0335,0.034,0.0338,0.0319,0.0305,0.0272,0.0206,0.0222,0.0165,0.0124,0.012,0.0091,0.0057,0.0034,0.0051,0.0051,0.0052,0.0052,0.0052,0,0.0132,0.0171,0.0207,0.022,0.0259,0.0287,0.0311,0.034,0.0367,0.0386,0.0397,0.0371,0.0356,0.0293,0.0205,0.0207,0.0119,0.0109,0.0038,0.0035,0.0049,0.0047,0.0059,0.0059,0.006,0.006,0.006,0,0.0152,0.018,0.0219,0.0239,0.0289,0.0311,0.0363,0.0385,0.0416,0.0452,0.0433,0.044,0.0361,0.0301,0.0219,0.0117,0.0125,0.0046,0.0021,0.0068,0.007,0.0046,0.0045,0.0057,0.0058,0.0058,0.0059,0,0.0156,0.0181,0.0225,0.0275,0.0296,0.0333,0.0394,0.0428,0.0457,0.05,0.0508,0.0486,0.0419,0.0322,0.0211,0.0134,0.0039,-0.0004,0.0043,0.0021,-0.004,-0.0038,-0.008,-0.0081,-0.0082,-0.0083,-0.0084,0,0.0161,0.0182,0.0245,0.0277,0.0303,0.0358,0.0397,0.0444,0.0484,0.0527,0.0547,0.0503,0.0473,0.0306,0.0199,0.0038,0.0014,-0.0052,-0.0031,-0.0032,-0.0052,-0.0048,-0.0044,-0.0085,-0.0085,-0.0085,-0.0086,0,0.0165,0.0187,0.0219,0.0284,0.0335,0.0394,0.0457,0.0487,0.0545,0.0567,0.0584,0.0516,0.0436,0.0313,0.0182,0.0067,-0.0013,-0.0062,-0.006,-0.004,-0.0038,-0.0056,-0.0051,-0.0088,-0.0088,-0.0088,-0.0088,0,0.0164,0.0182,0.0228,0.0286,0.0346,0.0416,0.0454,0.0508,0.0549,0.0602,0.0599,0.0532,0.0493,0.0326,0.0207,0.0094,0.0068,0.002,0.0016,0.0018,0.0072,0.0091,0.0063,0,0,0,0,0,0.0166,0.0186,0.023,0.0296,0.0356,0.0406,0.0485,0.0522,0.0575,0.0593,0.0604,0.0538,0.0392,0.0329,0.0216,0.0176,0.0032,0.0035,-0.003,-0.0105,-0.0101,-0.0056,0,0,0,0,0,0,0.0166,0.0202,0.022,0.0293,0.0341,0.0421,0.0478,0.0525,0.054,0.0575,0.0503,0.0488,0.0345,0.0457,0.0207,0.0174,0.0111,-0.0026,-0.0029,-0.0107,-0.0104,-0.0101,-0.0053,0,0,0,0,0]}]]